This is the latest recevied weather packets stored in our database for station/object WK7G. If no packets are shown the sender has not sent any weather packets the latest 10 day(s).
| Time | Temp. | Humidity | Pressure | Rain* | Wind** | Luminosity | Snow |
|---|---|---|---|---|---|---|---|
| 1777541508 | -3.33° C | 90% | 1014.8 hPa | 0 mm | - | 0 W/m² | - |
| 1777541205 | -3.33° C | 90% | 1014.8 hPa | 0 mm | - | 0 W/m² | - |
| 1777540901 | -3.89° C | 90% | 1014.9 hPa | 0 mm | - | 0 W/m² | - |
| 1777540599 | -3.89° C | 89% | 1014.9 hPa | 0 mm | - | 0 W/m² | - |
| 1777540296 | -2.78° C | 89% | 1014.8 hPa | 0 mm | - | 0 W/m² | - |
| 1777539992 | -2.22° C | 90% | 1014.9 hPa | 0 mm | - | 0 W/m² | - |
| 1777539384 | -2.78° C | 89% | 1015.2 hPa | 0 mm | - | 0 W/m² | - |
| 1777538168 | -2.78° C | 89% | 1015.1 hPa | 0 mm | - | 0 W/m² | - |
| 1777537863 | -3.33° C | 88% | 1015.4 hPa | 0 mm | - | 0 W/m² | - |
| 1777537560 | -2.78° C | 88% | 1014.9 hPa | 0 mm | - | 0 W/m² | - |
| 1777537256 | -2.22° C | 88% | 1015.2 hPa | 0 mm | - | 0 W/m² | - |
| 1777536951 | -2.22° C | 88% | 1015.3 hPa | 0 mm | - | 0 W/m² | - |
| 1777536649 | -2.22° C | 88% | 1015.1 hPa | 0 mm | - | 0 W/m² | - |
| 1777536346 | -1.67° C | 88% | 1015.2 hPa | 0 mm | - | 0 W/m² | - |
| 1777536043 | -1.67° C | 88% | 1015.1 hPa | 0 mm | - | 0 W/m² | - |
| 1777535738 | -1.67° C | 88% | 1015.3 hPa | 0 mm | - | 0 W/m² | - |
| 1777535436 | -1.67° C | 88% | 1015.2 hPa | 0 mm | - | 0 W/m² | - |
| 1777535133 | -1.11° C | 89% | 1015.3 hPa | 0 mm | - | 0 W/m² | - |
| 1777534829 | -1.67° C | 89% | 1015.2 hPa | 0 mm | - | 0 W/m² | - |
| 1777534526 | -2.22° C | 89% | 1015.3 hPa | 0 mm | - | 0 W/m² | - |
| 1777534223 | -2.22° C | 89% | 1015.4 hPa | 0 mm | - | 0 W/m² | - |
| 1777533921 | -1.67° C | 89% | 1015.2 hPa | 0 mm | - | 0 W/m² | - |
| 1777533618 | -2.22° C | 89% | 1015.5 hPa | 0 mm | - | 0 W/m² | - |
| 1777533314 | -2.22° C | 89% | 1015.1 hPa | 0 mm | - | 0 W/m² | - |
| 1777533010 | -2.22° C | 89% | 1015.2 hPa | 0 mm | - | 0 W/m² | - |
* Rain latest hour (hover to see other rain measurements)
** Current wind speed in m/s (hover to see current wind gust speed)